Regional Weather Roundup
Issued by NWS Cleveland, OH

Home | Current Version | Previous Version | Graphics & Text | Print | Product List | Glossary On
Versions: 1 2 3 4 5 6 7 8 9 10 11 12 13 14 15 16 17 18 19 20 21 22 23 24 25 26 27 28 29 30 31 32 33 34 35 36 37 38 39 40 41 42 43 44 45 46 47 48 49 50
000
ASUS41 KCLE 260500
RWRCLE
OHIO REGIONAL WEATHER ROUNDUP
NATIONAL WEATHER SERVICE WILMINGTON, OH
100 AM EDT TUE SEP 26 2017

NOTE: "FAIR" INDICATES FEW OR NO CLOUDS BELOW 12,000 FEET WITH NO
SIGNIFICANT WEATHER AND/OR OBSTRUCTIONS TO VISIBILITY.

OHZ001>008-015>018-024>027-034-035-043-044-260600-
   NORTHWEST OHIO

CITY           SKY/WX    TMP DP  RH WIND       PRES   REMARKS
DEFIANCE       FAIR      67  62  84 CALM      29.98S
FINDLAY        FAIR      71  64  78 S5        29.99R
TOLEDO EXPRESS FAIR      70  68  93 CALM      29.98S
TOLEDO EXEC    FAIR      73  67  81 SE3       29.98F
LIMA           FAIR      67  63  87 CALM      30.00S
$$

OHZ009>014-019>023-028>033-038-089-260600-
   NORTHEAST OHIO

CITY           SKY/WX    TMP DP  RH WIND       PRES   REMARKS
CLE-HOPKINS    MOCLDY    73  61  65 S5        30.02S
CLE-LAKEFRONT  FAIR      77  60  55 S6        29.99S
CUY CO. ARPT   NOT AVBL
LORAIN-ELYRIA  FAIR      66  59  78 CALM      30.01S
ASHTABULA      FAIR      69  66  90 CALM      30.03S
AKRON-CANTON   MOCLDY    72  58  61 CALM      30.03S
WOOSTER        NOT AVBL
MANSFIELD      FAIR      69  64  84 S3        30.03S
YOUNGSTOWN     CLOUDY    66  63  90 E3        30.03S
$$

OHZ042-051>053-060>062-070>072-077>081-260600-
  SOUTHWEST OHIO

CITY           SKY/WX    TMP DP  RH WIND       PRES   REMARKS
CINC-COVINGTON FAIR      73  65  75 CALM      30.01R
CINC-LUNKEN    FAIR      65  65 100 CALM      30.00S FOG
HAMILTON       FAIR      63  63 100 CALM      30.01R
DAYTON         NOT AVBL
WRIGHT-PAT AFB FAIR      69  65  86 CALM      30.01R
DAYTON GENERAL FAIR      69  61  75 CALM      30.01R
WILMINGTON     FAIR      68  63  84 CALM      30.02S
$$

OHZ036-037-039>041-045>050-054>059-063>069-073>076-082>088-260600-
  CENTRAL AND SOUTHEAST OHIO

CITY           SKY/WX    TMP DP  RH WIND       PRES   REMARKS
COLUMBUS       MOCLDY    70  66  87 CALM      30.01R
OSU AIRPORT    FAIR      71  65  81 CALM      30.01S
BOLTON FIELD   NOT AVBL
RICKENBACK AFB NOT AVBL
NEWARK         FAIR      66  64  93 CALM      30.01S
MARION         FAIR      70  62  76 S7        30.02S
LANCASTER      FAIR      63  62  97 CALM      30.02R
ZANESVILLE     FAIR      65  63  93 CALM      30.01F
NEW PHILLY     FAIR      63  61  93 CALM      30.03S
$$




USA.gov is the U.S. government's official web portal to all federal, state and local government web resources and services.